Regional Weather Roundup
Issued by NWS Goodland, KS

Home | Current Version | Previous Version | Text Only | Print | Product List | Glossary Off
Versions: 1 2 3 4 5 6 7 8 9 10 11 12 13 14 15 16 17 18 19 20 21 22 23 24 25 26 27 28 29 30 31 32 33 34 35 36 37 38 39 40 41 42 43 44 45 46 47 48 49 50

000
ASUS43 KGLD 021608
RWRGLD

GOODLAND FORECAST AREA HOURLY WEATHER ROUNDUP
NATIONAL WEATHER SERVICE GOODLAND KS
1000 AM MDT THU JUL 02 2015

...OFFICIAL OBSERVATIONS...

CITY           SKY/WX    TMP DP  RH WIND       PRES   REMARKS
GOODLAND KS    PTSUNNY   72  55  55 NW7       30.09F
HILL CITY KS   LGT RAIN  77  66  68 VRB7      29.99S
IMPERIAL NEB   MOSUNNY   76  60  57 W9        30.07R
MCCOOK NEB     PTSUNNY   76  59  55 W8        30.00S
AKRON CO       MOSUNNY   68  59  73 W16       30.19R
BURLINGTON CO  PTSUNNY   69  52  54 N12       30.19R
LIMON CO       MOSUNNY   65  53  65 N6        30.24F
$$

...UNOFFICIAL OBSERVATIONS...

CITY           SKY/WX    TMP DP  RH WIND       PRES   REMARKS
COLBY KS       MOSUNNY   75  59  57 N5        30.03F
GOVE KS          N/A     80  32  17 MISG        N/A
NORTON KS      LGT RAIN  73  61  64 S6        29.97R
SHARON SPRINGS   N/A     74  61  63 N8          N/A
KIT CARSON CO    N/A     72  57  58 MISG        N/A
YUMA CO          N/A     68  61  77 SW6         N/A
$$



USA.gov is the U.S. government's official web portal to all federal, state and local government web resources and services.